Home   Weather   Waco   Past weeks

Flag for USA Past Weather in Waco, Texas, USA — Yesterday and Last 2 Weeks

Now
73 °F

Scattered clouds.


Feels Like: 71 °F
Forecast: 54 / 78 °F
Wind: 10 mph from South

Location: Waco Regional Airport

Current Time: Apr 26, 2017 at 9:12:34 am

Latest Report: Apr 26, 2017 at 7:51 am


Visibility: 7 mi

Pressure: 29.46 "Hg

Humidity: 90%

Dew Point: 70 °F

Location of WacoLocation

Past Weather in Waco — Graph

°F

Waco Temperature Yesterday

Maximum temperature yesterday: 84 °F (at 4:51 pm)
Minimum temperature yesterday: 63 °F (at 2:51 am)
Average temperature yesterday: 73 °F

High & Low Weather Summary for the Past Weeks

 TemperatureHumidityPressure
High84 °F (Apr 21, 2:51 pm)100% (Apr 11, 6:13 am)30.24 "Hg (Apr 11, 6:13 am)
Low44 °F (Apr 24, 5:51 am)33% (Apr 23, 4:51 pm)29.41 "Hg (Apr 26, 2:51 am)
Average68 °F81%29.98 "Hg
* Reported Apr 11 6:13 am — Apr 26 6:51 am, Waco, Weather by CustomWeather, © 2017

Note: Actual official high and low records may vary slightly from our data, if they occured in-between our weather recording intervals... More about our weather records

Advertising

Waco Weather History for the Previous 24 Hours

Scroll right to see more
 ConditionsComfort  
Time TempWeatherWind HumidityBarometerVisibility
6:51 am
Wed, Apr 26
72 °FFog.8 mph97%29.46 "Hg6 mi
5:51 am72 °FFog.3 mph100%29.45 "Hg6 mi
5:28 am72 °FFog.3 mph97%29.47 "Hg6 mi
5:00 am72 °FFog.3 mph97%29.47 "Hg6 mi
3:51 am73 °FOvercast.13 mph94%29.41 "Hg7 mi
2:51 am74 °FOvercast.22 mph88%29.41 "Hg10 mi
1:51 am75 °FOvercast.21 mph85%29.43 "Hg10 mi
12:51 am74 °FOvercast.17 mph88%29.44 "Hg10 mi
11:51 pm
Tue, Apr 25
75 °FOvercast.16 mph82%29.46 "Hg10 mi
10:51 pm75 °FOvercast.20 mph82%29.47 "Hg10 mi
10:19 pm75 °FPassing clouds.13 mph82%29.49 "Hg10 mi
9:51 pm75 °FClear.16 mph82%29.46 "Hg10 mi
8:51 pm77 °FClear.18 mph74%29.43 "Hg10 mi
7:51 pm79 °FSunny.18 mph72%29.43 "Hg10 mi
6:51 pm80 °FScattered clouds.17 mph69%29.44 "Hg10 mi
5:51 pm83 °FPartly sunny.17 mph63%29.44 "Hg10 mi
4:51 pm84 °FSunny.21 mph59%29.44 "Hg10 mi
3:51 pm83 °FLight rain. Scattered clouds.20 mph61%29.48 "Hg10 mi
2:51 pm82 °FPassing clouds.25 mph63%29.51 "Hg10 mi
1:51 pm80 °FScattered clouds.25 mph64%29.54 "Hg10 mi
1:26 pm79 °FScattered clouds.24 mph65%29.56 "Hg10 mi
12:51 pm78 °FPartly sunny.24 mph66%29.56 "Hg10 mi
11:51 am76 °FPartly sunny.24 mph69%29.58 "Hg10 mi
10:51 am72 °FOvercast.17 mph78%29.59 "Hg10 mi
9:51 am68 °FOvercast.15 mph87%29.61 "Hg10 mi
9:07 am67 °FOvercast.17 mph85%29.63 "Hg10 mi
Weather by CustomWeather, © 2017

See weather overviewHow to use our weather pages